Showing default

LEMUR 2 FURIAUS, 42840

Orbit data source: Space-Track

LEMUR 2 FURIAUS, 42840 is a payload satellite owned by Spire (US) in SSO that was launched on Fri, 14 Jul 2017 UTC via a SOYUZ-2-1A launch vehicle from the Tyuratam Missile And Space Complex (TTMTR). Payload-class satellites include a variety of spacecraft equipped with specific instruments for various scientific and technological missions. These include communications satellites like Starlink; space stations such as the ISS; scientific satellites like the Hubble; Earth observation satellites from companies like Planet Labs, Umbra, and HawkEye 360; GPS; miniature CubeSats for education and research; and military/defense satellites.

Loading next visibility...
Identifier
42840, 2017-042R
Orbit
SSO
Country
Flag of USUS
Related business
Manufacturer
Spire/Glasgow
Mission
Operational Commercial Com/MetRO
Bus & Motor
CUBESAT 3U, Unknown motor
Mass
4 kg wet, 4 kg dry
Launch date (UTC)
2017-07-14 (8 years ago)
Launch vehicle
SOYUZ-2-1A
Launch site
Tyuratam Missile And Space Complex (TTMTR)
Object type
Payload
Rocket body
Debris
Shape & HBR
Box, 0.5 m
Radar Cross Section
0.093 m², Small (<0.1 m²)

Expand to show TLE details & history
Last TLE update: 14 hours ago

TLE from 14 hours ago
0 LEMUR 2 FURIAUS
1 42840U 17042R   25287.22810734  .00016202  00000-0  75709-3 0  9995
2 42840  97.3726 104.4832 0008645 204.5180 155.5645 15.19840924450721
Epoch: 2025-10-14T05:28Z
TLE epoch observation values (Epoch: 2025-10-14T05:28:28.474Z)
Latitude
-0.00002°
Longitude
-0.65499°
Altitude
514.833 km
Speed
7.603 km/s
True Right ascension
06h 57m 55s
True Declination
0° 00' 00"
Sunlit
Object was in daylight at epoch
Visualization orbit readout
Latitude
Unknown
Longitude
Unknown
Altitude
Unknown
Speed
Unknown
Apparent Right ascension
Unknown
Apparent Declination
Unknown
Sunlit
N/A
Visualization observer readout
Local Sidereal Time
13:38:29
Azimuth
Unknown
Elevation
Unknown
Doppler factor
Unknown
Orbital elements
Apogee altitude
509.235 km
Perigee altitude
497.337 km
Semi-major axis
6,881.423 km
Eccentricity
0.00086
Inclination
97.3726°
RAAN
104.4832°
Arg. of periapsis
204.518°
True anomaly
155.60544°
Mean anomaly
155.5645°
Eccentric anomaly
155.58497°
Mean motion
3.80212 °/min
Orbital period
94.68 mins
BSTAR
0.00075709
Loading maneuver chart data...
Computing Atmospheric mass density...

Documentation

Showing up to 5 results
|